Weather History for KMSS - December, 2011

Change the Weather History Date:

Wednesday, December 7, 2011

  Actual Average Record
Temperature  
Mean Temperature 34 °F 26 °F  
Max Temperature 37 °F 34 °F 65 °F (1998)
Min Temperature 30 °F 18 °F -7 °F (2000)
Degree Days  
Heating Degree Days 31 39  
Month to date heating degree days 205 264  
Since 1 July heating degree days 1497 2033  
Cooling Degree Days 0 0  
Month to date cooling degree days 0  
Year to date cooling degree days 363  
Moisture  
Dew Point 30 °F    
Average Humidity 85    
Maximum Humidity 100    
Minimum Humidity 69    
Precipitation  
Precipitation T in 0.08 in 0.94 in (1966)
Month to date precipitation 0.83 0.60  
Year to date precipitation 29.71 33.13  
Sea Level Pressure  
Sea Level Pressure 29.91 in    
Wind  
Wind Speed 3 mph (WNW)    
Max Wind Speed 10 mph    
Max Gust Speed 13 mph    
Visibility 6 miles    
Events Rain , Snow    
T = Trace of Precipitation, MM = Missing Value Source: NWS Daily Summary

Daily Weather History Graph

Daily Weather History Graph

Search for Another Location

Airport or City:

Trip Planner

Search our weather history database for the weather conditions in past years. The results will help you decide how hot, cold, wet, or windy it might be!

Date:

Astronomy

Dec. 07, 2011 Rise Set
Actual Time 7:23 AM EST 4:18 PM EST
Civil Twilight 6:49 AM EST 4:51 PM EST
Nautical Twilight 6:12 AM EST 5:28 PM EST
Astronomical Twilight 5:37 AM EST 6:03 PM EST
Moon 2:20 PM EST (12/7) 4:33 AM EST (12/7)
Length of Visible Light 10h 01m
Length of Day
8h 54m
Waxing Gibbous, 92% of the Moon is Illuminated
Dec 7
Waxing Gibbous
Dec 10
Full
Dec 17
Last Quarter
Dec 24
New
Jan 1
First Quarter

Hourly Weather History & Observations

Time (EST) Temp. Windchill Dew Point Humidity Pressure Visibility Wind Dir Wind Speed Gust Speed Precip Events Conditions
12:53 AM 35.1 °F 30.1 °F 32.0 °F 89% 30.01 in 6.0 mi NE 5.8 mph - N/A   Overcast
1:53 AM 35.1 °F 31.0 °F 30.9 °F 85% 29.99 in 6.0 mi NNE 4.6 mph - N/A   Overcast
2:53 AM 35.1 °F 32.2 °F 32.0 °F 89% 29.99 in 6.0 mi North 3.5 mph - N/A   Overcast
3:53 AM 35.1 °F - 30.9 °F 85% 30.00 in 6.0 mi Calm Calm - N/A   Overcast
4:29 AM 35.6 °F - 32.0 °F 87% 29.99 in 4.0 mi Calm Calm - N/A   Overcast
4:53 AM 35.1 °F - 32.0 °F 89% 29.99 in 3.0 mi Calm Calm - N/A   Overcast
5:15 AM 33.8 °F - 32.0 °F 93% 29.96 in 2.5 mi Calm Calm - N/A   Overcast
5:26 AM 33.8 °F - 32.0 °F 93% 29.96 in 1.5 mi Calm Calm - N/A   Overcast
5:36 AM 33.8 °F - 32.0 °F 93% 29.96 in 1.2 mi Calm Calm - N/A   Overcast
5:53 AM 34.0 °F 31.0 °F 32.0 °F 92% 29.98 in 1.2 mi SE 3.5 mph - N/A   Overcast
6:25 AM 33.8 °F 29.6 °F 33.8 °F 100% 29.97 in 1.0 mi SSE 4.6 mph - N/A   Overcast
6:49 AM 33.8 °F - 33.8 °F 100% 29.97 in 0.8 mi Calm Calm - N/A   Overcast
6:53 AM 33.8 °F - 33.8 °F 100% 29.97 in 0.8 mi Calm Calm - N/A   Overcast
7:53 AM 35.6 °F - 33.8 °F 93% 29.95 in 0.8 mi Calm Calm - N/A   Mist
8:22 AM 35.6 °F 31.7 °F 33.8 °F 93% 29.96 in 1.5 mi West 4.6 mph - N/A   Overcast
8:31 AM 35.6 °F 32.8 °F 33.8 °F 93% 29.97 in 2.5 mi WSW 3.5 mph - N/A   Overcast
8:49 AM 35.6 °F 32.8 °F 33.8 °F 93% 29.96 in 1.2 mi WNW 3.5 mph - 0.00 in Rain Light Rain
8:53 AM 35.1 °F - 34.0 °F 96% 29.97 in 1.5 mi Calm Calm - 0.00 in Rain Light Rain
9:04 AM 35.6 °F 32.8 °F 33.8 °F 93% 29.96 in 3.0 mi WNW 3.5 mph - 0.00 in   Overcast
9:21 AM 35.6 °F - 33.8 °F 93% 29.95 in 5.0 mi Calm Calm - 0.00 in   Overcast
9:44 AM 35.6 °F - 33.8 °F 93% 29.94 in 7.0 mi Calm Calm - 0.00 in   Overcast
9:53 AM 35.1 °F - 33.1 °F 92% 29.95 in 8.0 mi Calm Calm - 0.00 in   Overcast
10:53 AM 36.0 °F 33.3 °F 33.1 °F 89% 29.94 in 9.0 mi West 3.5 mph - N/A   Overcast
11:53 AM 36.0 °F 32.1 °F 32.0 °F 86% 29.90 in 10.0 mi WNW 4.6 mph - N/A   Overcast
12:53 PM 35.1 °F 31.0 °F 30.9 °F 85% 29.89 in 10.0 mi WNW 4.6 mph - N/A   Overcast
1:53 PM 36.0 °F 32.1 °F 30.9 °F 82% 29.84 in 10.0 mi NNW 4.6 mph - N/A   Overcast
2:53 PM 35.1 °F 30.1 °F 30.0 °F 82% 29.85 in 10.0 mi NW 5.8 mph - N/A   Overcast
3:53 PM 33.1 °F 25.5 °F 28.0 °F 82% 29.85 in 10.0 mi NW 9.2 mph - N/A   Overcast
4:32 PM 32.0 °F 24.2 °F 28.4 °F 87% 29.83 in 2.5 mi NW 9.2 mph - 0.00 in Snow Light Snow
4:53 PM 32.0 °F 27.5 °F 28.0 °F 85% 29.84 in 3.0 mi NW 4.6 mph - 0.00 in Snow Light Snow
5:01 PM 32.0 °F 26.4 °F 28.4 °F 87% 29.81 in 2.5 mi NW 5.8 mph - 0.00 in Snow Light Snow
5:13 PM 32.0 °F 25.6 °F 28.4 °F 87% 29.82 in 5.0 mi NW 6.9 mph - 0.00 in Snow Light Snow
5:28 PM 32.0 °F 26.4 °F 26.6 °F 80% 29.82 in 10.0 mi NW 5.8 mph - 0.00 in   Overcast
5:53 PM 32.0 °F 27.5 °F 25.0 °F 75% 29.83 in 10.0 mi WNW 4.6 mph - 0.00 in   Overcast
6:53 PM 32.0 °F 26.4 °F 25.0 °F 75% 29.83 in 10.0 mi NW 5.8 mph - N/A   Overcast
7:53 PM 32.0 °F - 25.0 °F 75% 29.82 in 10.0 mi Calm Calm - N/A   Overcast
8:29 PM 32.0 °F 27.5 °F 24.8 °F 75% 29.80 in 10.0 mi NW 4.6 mph - N/A   Overcast
8:53 PM 32.0 °F 26.4 °F 25.0 °F 75% 29.83 in 10.0 mi West 5.8 mph - N/A   Overcast
9:53 PM 30.9 °F 24.3 °F 21.9 °F 69% 29.80 in 10.0 mi WNW 6.9 mph - N/A   Overcast
10:53 PM 30.9 °F - 21.9 °F 69% 29.81 in 10.0 mi Calm Calm - N/A   Overcast
11:53 PM 30.0 °F 26.5 °F 23.0 °F 75% 29.80 in 10.0 mi SW 3.5 mph - N/A   Scattered Clouds